Regional Weather Roundup
Issued by NWS

Home | Current Version | Previous Version | Text Only | Print | Product List | Glossary On
Versions: 1 2 3 4 5 6 7 8 9 10 11 12 13 14 15 16 17 18 19 20 21 22 23 24 25 26 27 28 29 30 31 32 33 34 35 36 37 38 39 40 41 42 43 44 45 46 47 48 49 50
000
ASUS44 KLIX 172010
RWRLA
LOUISIANA WEATHER ROUNDUP
NATIONAL WEATHER SERVICE NEW ORLEANS LA
300 PM CDT WED SEP 17 2014

NOTE: "FAIR" INDICATES FEW OR NO CLOUDS BELOW 12,000 FEET WITH NO
      SIGNIFICANT WEATHER AND/OR OBSTRUCTIONS TO VISIBILITY.
      SKY/WX - SKY CONDITION AND SIGNIFICANT WEATHER.
      TMP - AIR TEMPERATURE.    DP   - DEWPOINT TEMPERATURE.
      RH  - RELATIVE HUMIDITY.  PRES - PRESSURE.
      HX  - HEAT INDEX.         WCI  - WIND CHILL INDEX.

*  THESE STATIONS ARE NOT NWS OR FAA STATIONS AND ARE NOT UNDER
   NWS QUALITY CONTROL.

LAZ040-048-061>063-065-066-069-172100-
SOUTHEAST LOUISIANA

CITY           SKY/WX    TMP DP  RH WIND       PRES   REMARKS
N.O. AUDUBON     N/A     90  74  58 MISG        N/A  HX  99
N.O. INTL ARPT CLOUDY    88  69  53 N7        29.94S
N.O. LAKEFRONT CLOUDY    86  72  62 N6        29.94F
N.O. DOWNTOWN* FAIR      88  68  51 NW6       29.94S
SLIDELL        PTSUNNY   88  70  55 E5        29.92F
BATON ROUGE    CLOUDY    86  73  65 NE5       29.92F
BOOTHVILLE     PTSUNNY   85  73  67 VRB3      29.94S
BELLE CHASSE   PTSUNNY   83  72  69 SW7       29.93S
BOGALUSA*      FAIR      90  69  50 CALM      29.93F HX  95
GALLIANO*      NOT AVBL
NEW ROADS*     FAIR      85  72  64 N3        29.93F
GONZALES*      FAIR      86  75  68 E5        29.92F
HAMMOND*       PTSUNNY   90  70  51 CALM      29.94F HX  95
HOUMA*         MOSUNNY   90  66  45 N5        29.92F
PORT FOURCHON* CLOUDY    84  75  74 W6        29.96F

$$

LAZ041-044-053-054-172100-
SOUTHWEST LOUISIANA

CITY           SKY/WX    TMP DP  RH WIND       PRES   REMARKS
LAKE CHARLES   HVY RAIN  77  74  90 S10       29.93R FOG
LAFAYETTE      MOSUNNY   88  73  61 E6        29.92F HX  95
PATTERSON      PTSUNNY   88  73  62 CALM        N/A  HX  96
SALT POINT       N/A     87  75  67 W5        29.93F HX  96
NEW IBERIA     MOSUNNY   90  72  55 NE6       29.93F HX  97
CHENAULT AIRPK PTSUNNY   86  72  62 E5        29.91F

$$

LAZ027-028-172100-
CENTRAL LOUISIANA

CITY           SKY/WX    TMP DP  RH WIND       PRES   REMARKS
FORT POLK      PTSUNNY   85  72  65 CALM      29.92F
ALEXANDRIA INT PTSUNNY   87  72  60 E6        29.91F
ALEXANDRIA     PTSUNNY   86  74  67 CALM      29.93F

$$

LAZ001-002-172100-
NORTHWEST LOUISIANA

CITY           SKY/WX    TMP DP  RH WIND       PRES   REMARKS
SHREVEPORT     PTSUNNY   90  69  50 CALM      29.90F
BARKSDALE AFB  PTSUNNY   88  70  55 SE6       29.91F
DTN SHREVEPORT PTSUNNY   87  70  56 SE7       29.91F

$$

LAZ014-016-172100-
NORTHEAST LOUISIANA

CITY           SKY/WX    TMP DP  RH WIND       PRES   REMARKS
MONROE         PTSUNNY   89  70  53 VRB5      29.93F
TALLULAH       SUNNY     92  66  42 E3        29.91F

$$




USA.gov is the U.S. government's official web portal to all federal, state and local government web resources and services.